Marshfield, WI

12:58 AM CDT on April 24, 2018 (GMT -0500)
Marshfield Municipal

Weather History for KMFI - November, 2012

Change the Weather History Date:

Thursday, November 29, 2012

  Actual Average Record
Temperature  
Mean Temperature 31 °F -  
Max Temperature 41 °F 33 °F 60 °F (1998)
Min Temperature 21 °F 16 °F -12 °F (1929)
Degree Days  
Heating Degree Days 34    
Moisture  
Dew Point 24 °F    
Average Humidity 74    
Maximum Humidity 89    
Minimum Humidity 55    
Precipitation  
Precipitation 0.00 in - - ()
Sea Level Pressure  
Sea Level Pressure 30.15 in    
Wind  
Wind Speed 6 mph (East)    
Max Wind Speed 14 mph    
Max Gust Speed 22 mph    
Visibility 9 miles    
Events      
Averages and records for this station are not official NWS values.
T = Trace of Precipitation, MM = Missing Value Source: NWS Daily Summary

Daily Weather History Graph

Daily Weather History Graph

Search for Another Location

Airport or City:

Astronomy

Nov. 29, 2012 Rise Set
Actual Time 7:15 AM CST 4:22 PM CST
Civil Twilight 6:43 AM CST 4:55 PM CST
Nautical Twilight 6:06 AM CST 5:31 PM CST
Astronomical Twilight 5:31 AM CST 6:06 PM CST
Moon 5:25 PM CST (11/29) 8:02 AM CST (11/29)
Length of Visible Light 10h 12m
Length of Day
9h 06m
Full, 99% of the Moon is Illuminated
Nov 29
Full
Dec 6
Last Quarter
Dec 13
New
Dec 19
First Quarter
Dec 28
Full

Hourly Weather History & Observations

Time (CST) Temp. Windchill Dew Point Humidity Pressure Visibility Wind Dir Wind Speed Gust Speed Precip Events Conditions
12:54 AM 27.0 °F 23.0 °F 21.0 °F 78% 30.17 in 10.0 mi SSW 3.5 mph - N/A   Partly Cloudy
1:54 AM 28.0 °F - 21.0 °F 75% 30.17 in 9.0 mi Calm Calm - N/A   Scattered Clouds
2:54 AM 27.0 °F 21.6 °F 21.0 °F 78% 30.15 in 10.0 mi South 4.6 mph - N/A   Mostly Cloudy
4:54 AM 27.0 °F - 19.9 °F 75% 30.14 in 10.0 mi Calm Calm - N/A   Clear
5:54 AM 26.1 °F - 19.9 °F 78% 30.14 in 10.0 mi Calm Calm - N/A   Clear
6:54 AM 24.1 °F - 19.0 °F 81% 30.14 in 8.0 mi Calm Calm - N/A   Clear
7:54 AM 21.9 °F - 19.0 °F 89% 30.15 in 6.0 mi Calm Calm - N/A   Clear
8:54 AM 30.0 °F - 23.0 °F 75% 30.15 in 7.0 mi Calm Calm - N/A   Clear
10:54 AM 35.1 °F 29.3 °F 25.0 °F 67% 30.14 in 9.0 mi East 6.9 mph - N/A   Clear
11:54 AM 39.0 °F 32.8 °F 26.1 °F 60% 30.12 in 10.0 mi East 9.2 mph - N/A   Clear
12:54 PM 41.0 °F 36.4 °F 26.1 °F 55% 30.12 in 9.0 mi ESE 6.9 mph - N/A   Clear
1:54 PM 39.9 °F 33.9 °F 25.0 °F 55% 30.10 in 10.0 mi East 9.2 mph - N/A   Clear
2:54 PM 39.9 °F 34.5 °F 25.0 °F 55% 30.11 in 9.0 mi East 8.1 mph - N/A   Clear
3:54 PM 37.0 °F 31.0 °F 24.1 °F 59% 30.12 in 10.0 mi East 8.1 mph - N/A   Clear
4:54 PM 34.0 °F 26.6 °F 23.0 °F 64% 30.14 in 10.0 mi ENE 9.2 mph - N/A   Clear
5:54 PM 33.1 °F 24.9 °F 23.0 °F 66% 30.16 in 10.0 mi East 10.4 mph - N/A   Clear
6:54 PM 32.0 °F 22.1 °F 24.1 °F 73% 30.17 in 9.0 mi East 13.8 mph - N/A   Clear
7:39 PM 30.2 °F 20.8 °F 24.8 °F 80% 30.12 in 8.0 mi East 11.5 mph 21.9 mph N/A   Mostly Cloudy
7:54 PM 30.9 °F 21.2 °F 25.0 °F 79% 30.18 in 8.0 mi East 12.7 mph - N/A   Scattered Clouds
8:17 PM 30.2 °F 20.2 °F 24.8 °F 80% 30.12 in 7.0 mi East 12.7 mph - N/A   Mostly Cloudy
8:54 PM 30.9 °F 21.2 °F 26.1 °F 82% 30.17 in 8.0 mi East 12.7 mph - N/A   Overcast
9:54 PM 30.9 °F 20.7 °F 26.1 °F 82% 30.18 in 8.0 mi East 13.8 mph - N/A   Overcast
10:54 PM 30.0 °F 20.0 °F 26.1 °F 85% 30.18 in 8.0 mi East 12.7 mph 21.9 mph N/A   Overcast
11:43 PM 30.2 °F 20.2 °F 26.6 °F 86% 30.14 in 9.0 mi East 12.7 mph 20.7 mph N/A   Overcast
11:54 PM 30.0 °F 19.5 °F 26.1 °F 85% 30.18 in 9.0 mi East 13.8 mph - N/A   Overcast